Weather History for Poplar Bluff, MO

Change the Weather History Date:

Friday, December 14, 2012

  Actual Average Record
Temperature  
Mean Temperature 40 °F -  
Max Temperature 53 °F 46 °F 69 °F (1948)
Min Temperature 27 °F 28 °F 5 °F (1985)
Degree Days  
Heating Degree Days 25    
Moisture  
Dew Point 33 °F    
Average Humidity 73    
Maximum Humidity 93    
Minimum Humidity 47    
Precipitation  
Precipitation 0.01 in - - ()
Sea Level Pressure  
Sea Level Pressure 30.20 in    
Wind  
Wind Speed 2 mph (South)    
Max Wind Speed 9 mph    
Max Gust Speed -    
Visibility 10 miles    
Events Rain    
Averages and records for this station are not official NWS values.
T = Trace of Precipitation, MM = Missing Value Source: NWS Daily Summary

Daily Weather History Graph

Daily Weather History Graph

Search for Another Location

Airport:

Trip Planner

Search our weather history database for the weather conditions in past years. The results will help you decide how hot, cold, wet, or windy it might be!

Date:

Astronomy

Dec. 14, 2012 Rise Set
Actual Time 7:06 AM CST 4:46 PM CST
Civil Twilight 6:37 AM CST 5:15 PM CST
Nautical Twilight 6:05 AM CST 5:47 PM CST
Astronomical Twilight 5:33 AM CST 6:19 PM CST
Moon 8:12 AM CST (12/14) 6:37 PM CST (12/14)
Length of Visible Light 10h 37m
Length of Day
9h 39m
Waxing Crescent, 3% of the Moon is Illuminated
Dec 14
Waxing Crescent
Dec 19
First Quarter
Dec 28
Full
Jan 4
Last Quarter
Jan 11
New

Hourly Weather History & Observations

Time (CST) Temp. Windchill Dew Point Humidity Pressure Visibility Wind Dir Wind Speed Gust Speed Precip Events Conditions
12:53 AM 28.9 °F - 25.0 °F 85% 30.27 in 10.0 mi Calm Calm - N/A   Clear
1:53 AM 28.9 °F - 26.1 °F 89% 30.26 in 9.0 mi Calm Calm - N/A   Clear
2:53 AM 28.9 °F - 25.0 °F 85% 30.26 in 10.0 mi Calm Calm - N/A   Clear
3:53 AM 27.0 °F - 23.0 °F 85% 30.27 in 10.0 mi Calm Calm - N/A   Clear
4:53 AM 28.0 °F - 24.1 °F 85% 30.27 in 10.0 mi Calm Calm - N/A   Clear
5:53 AM 27.0 °F - 23.0 °F 85% 30.27 in 9.0 mi Calm Calm - N/A   Clear
6:53 AM 27.0 °F - 24.1 °F 89% 30.29 in 10.0 mi Calm Calm - N/A   Clear
7:53 AM 30.9 °F - 26.1 °F 82% 30.29 in 9.0 mi Calm Calm - N/A   Clear
8:53 AM 37.0 °F - 32.0 °F 82% 30.29 in 9.0 mi Calm Calm - N/A   Clear
9:53 AM 45.0 °F 41.2 °F 34.0 °F 65% 30.30 in 10.0 mi South 6.9 mph - N/A   Clear
10:53 AM 48.9 °F - 33.1 °F 54% 30.27 in 10.0 mi SSW 9.2 mph - N/A   Clear
11:53 AM 52.0 °F - 34.0 °F 50% 30.25 in 10.0 mi SSW 6.9 mph - N/A   Clear
12:53 PM 52.0 °F - 34.0 °F 50% 30.21 in 10.0 mi SSW 4.6 mph - N/A   Clear
1:53 PM 53.1 °F - 33.1 °F 47% 30.19 in 10.0 mi SSW 6.9 mph - N/A   Clear
2:53 PM 53.1 °F - 34.0 °F 48% 30.18 in 10.0 mi South 5.8 mph - N/A   Clear
3:53 PM 50.0 °F - 37.0 °F 61% 30.14 in 10.0 mi SE 4.6 mph - N/A   Clear
4:53 PM 48.0 °F - 37.9 °F 68% 30.13 in 10.0 mi ESE 5.8 mph - N/A   Clear
5:53 PM 48.0 °F - 37.9 °F 68% 30.11 in 10.0 mi SE 3.5 mph - N/A   Clear
6:53 PM 48.0 °F - 37.9 °F 68% 30.12 in 10.0 mi SSE 4.6 mph - N/A   Clear
7:53 PM 45.0 °F - 39.0 °F 80% 30.11 in 10.0 mi Calm Calm - N/A   Clear
8:53 PM 46.0 °F - 39.0 °F 76% 30.09 in 10.0 mi Calm Calm - N/A   Scattered Clouds
9:53 PM 45.0 °F - 39.9 °F 82% 30.10 in 10.0 mi Calm Calm - 0.00 in Rain Light Rain
10:53 PM 44.1 °F - 42.1 °F 93% 30.06 in 10.0 mi Calm Calm - 0.00 in   Scattered Clouds
11:53 PM 46.9 °F - 39.9 °F 77% 30.02 in 8.0 mi SSE 5.8 mph - 0.01 in Rain Light Rain